Location: Peterborough
(44.3091°N, 78.3197°W)
Time: 00:21:10
(UTC-04:00)

Vanguard 2 Rocket - Pass Details

Date: 25 March 2023
Orbit: 554 x 3314 km, 32.9° (Epoch: 02 June)

Event Time Altitude Azimuth Distance (km) Brightness Sun altitude
Rises 01:51:11 0° 271° (W) 5,258 10.7 -43.4°
Enters shadow 01:52:05 - 269° (W) 5,076 10.6 -43.4°
Reaches altitude 10° 01:54:36 10° 262° (W) 4,612 - -43.3°
Maximum altitude 02:06:29 35° 204° (SSW) 3,911 - -42.8°
Drops below altitude 10° 02:22:43 10° 148° (SSE) 6,238 - -41.8°
Exits shadow 02:25:33 - 144° (SE) 6,761 11.1 -41.6°
Sets 02:28:24 0° 141° (SE) 7,286 11.3 -41.4°
